Location: Lynch Observatory
(39.9540°N, 75.1861°W)
Time: 18:13:28
(UTC-04:00)

Hubble Space Telescope - Pass Details

Date: 11 August 2022
Orbit: 532 x 535 km, 28.5° (Epoch: 23 September)

Event Time Altitude Azimuth Distance (km) Brightness Sun altitude
Rises 21:18:06 0° 247° (WSW) 2,667 4.8 -13.7°
Reaches altitude 10° 21:21:11 10° 222° (SW) 1,776 3.5 -14.2°
Maximum altitude 21:23:29 15° 188° (S) 1,503 2.8 -14.6°
Enters shadow 21:24:18 14° 175° (S) 1,539 2.7 -14.7°
